Location: *
(50.9167°S, 179.4000°W)
Time: 20:46:17
(UTC+00:00)

Tsikada Rocket - Pass Details

Date: 03 March 2024
Orbit: 957 x 1010 km, 82.9° (Epoch: 16 April)

Event Time Altitude Azimuth Distance (km) Brightness Sun altitude
Rises 16:42:10 0° 190° (S) 3,713 7.2 -8.4°
Reaches altitude 10° 16:44:42 10° 188° (S) 2,766 6.6 -8.0°
Maximum altitude 16:51:05 78° 101° (E) 1,027 4.3 -7.1°
Drops below altitude 10° 16:57:28 10° 14° (NNE) 2,772 6.4 -6.1°
Sets 17:00:00 0° 12° (NNE) 3,720 7.0 -5.7°
